STARLINK-1247, 45236

Orbit data source: Space-Track

STARLINK-1247, 45236 is a payload satellite owned by SpaceX/Seattle (US) in LEO that was launched on Mon, 17 Feb 2020 UTC via an FALCON 9 launch vehicle from the Air Force Eastern Test Range (AFETR). Payload-class satellites include a variety of spacecraft equipped with specific instruments for various scientific and technological missions. These include communications satellites like Starlink; space stations such as the ISS; scientific satellites like the Hubble; Earth observation satellites from companies like Planet Labs, Umbra, and HawkEye 360; GPS; miniature CubeSats for education and research; and military/defense satellites.

Loading next visibility...
Identifier
45236, 2020-012BL
Orbit
LEO
Country
Flag of USUS
Related business
Manufacturer
SpaceX/Seattle
Mission
Partially operational Commercial Communications
Bus & Motor
STARLINK, Unknown motor
Mass
260 kg wet, ~248 kg dry
Launch date (UTC)
2020-02-17 (6 years ago)
Launch vehicle
FALCON 9
Launch site
Air Force Eastern Test Range (AFETR)
Object type
Payload
Rocket body
Debris
Shape & HBR
Box + 1 Pan, 4.4 m
Radar Cross Section
13.562 m², Large (>1 m²)

Expand to show TLE details & history
Last TLE update: 11 hours ago

TLE from 11 hours ago
0 STARLINK-1247
1 45236U 20012BL  25260.91668981  .00338057  55526-4  90483-3 0  9998
2 45236  53.0422  11.3395 0000913 320.3330  58.7505 15.93989598  6076
Epoch: 2025-09-17T22:00Z
TLE epoch observation values (Epoch: 2025-09-17T22:00:01.999Z)
Latitude
15.16629°
Longitude
55.94568°
Altitude
291.012 km
Speed
7.736 km/s
True Right ascension
01h 32m 09s
True Declination
15° 04' 25"
Sunlit
Object was in full shadow at epoch
Visualization orbit readout
Latitude
Unknown
Longitude
Unknown
Altitude
Unknown
Speed
Unknown
Apparent Right ascension
Unknown
Apparent Declination
Unknown
Sunlit
N/A
Visualization observer readout
Local Sidereal Time
01:35:27
Azimuth
Unknown
Elevation
Unknown
Doppler factor
Unknown
Orbital elements
Apogee altitude
292.023 km
Perigee altitude
290.805 km
Semi-major axis
6,669.551 km
Eccentricity
0.00009
Inclination
53.0422°
RAAN
11.3395°
Arg. of periapsis
320.333°
True anomaly
58.75944°
Mean anomaly
58.7505°
Eccentric anomaly
58.75497°
Mean motion
3.98472 °/min
Orbital period
90.35 mins
BSTAR
0.00090483
Loading maneuver chart data...
Computing Atmospheric mass density...

Documentation

Showing up to 5 results
|